Fredericksburg, VA

4:17 AM EST on January 19, 2017 (GMT -0500)
Stafford

Weather History for KRMN - June, 2013

Change the Weather History Date:

Friday, June 14, 2013

  Actual Average (KNYG) Record (KNYG)
Temperature  
Mean Temperature 70 °F -  
Max Temperature 79 °F 78 °F 91 °F (2005)
Min Temperature 60 °F 62 °F 60 °F (1998)
Cooling Degree Days 4    
Growing Degree Days 20 (Base 50)    
Moisture  
Dew Point 56 °F    
Average Humidity 62    
Maximum Humidity 95    
Minimum Humidity 38    
Precipitation  
Precipitation 0.00 in - - ()
Sea Level Pressure  
Sea Level Pressure 29.88 in    
Wind  
Wind Speed 10 mph (NNW)    
Max Wind Speed 21 mph    
Max Gust Speed 30 mph    
Visibility 10 miles    
Events      
Averages and records for this station are not official NWS values.
T = Trace of Precipitation, MM = Missing Value Source: NWS Daily Summary

Daily Weather History Graph

Daily Weather History Graph

Search for Another Location

Airport or City:

Trip Planner

Search our weather history database for the weather conditions in past years. The results will help you decide how hot, cold, wet, or windy it might be!

Date:

Astronomy

Jun. 14, 2013 Rise Set
Actual Time 5:45 AM EDT 8:35 PM EDT
Civil Twilight 5:13 AM EDT 9:06 PM EDT
Nautical Twilight 4:34 AM EDT 9:46 PM EDT
Astronomical Twilight 3:48 AM EDT 10:31 PM EDT
Moon 11:14 AM EDT (6/14) No Moon Set
Length of Visible Light 15h 52m
Length of Day
14h 49m
Waxing Crescent, 30% of the Moon is Illuminated
Jun 14
Waxing Crescent
Jun 16
First Quarter
Jun 23
Full
Jun 30
Last Quarter
Jul 8
New

Hourly Weather History & Observations

Time (EDT) Temp. Dew Point Humidity Pressure Visibility Wind Dir Wind Speed Gust Speed Precip Events Conditions
12:15 AM 67.8 °F 57.6 °F 70% 29.67 in 10.0 mi WNW 8.1 mph - N/A   Clear
12:35 AM 68.2 °F 57.4 °F 68% 29.66 in 10.0 mi WNW 11.5 mph 16.1 mph N/A   Clear
12:55 AM 68.4 °F 57.2 °F 67% 29.67 in 10.0 mi WNW 10.4 mph 16.1 mph N/A   Clear
1:15 AM 68.0 °F 57.4 °F 69% 29.68 in 10.0 mi WNW 11.5 mph - N/A   Scattered Clouds
1:35 AM 68.4 °F 57.4 °F 68% 29.69 in 10.0 mi WNW 8.1 mph - N/A   Mostly Cloudy
1:55 AM 68.4 °F 57.0 °F 67% 29.68 in 10.0 mi NW 11.5 mph 17.3 mph N/A   Mostly Cloudy
2:15 AM 68.4 °F 56.5 °F 66% 29.69 in 10.0 mi WNW 11.5 mph 18.4 mph N/A   Mostly Cloudy
2:35 AM 69.1 °F 55.2 °F 61% 29.70 in 10.0 mi NW 12.7 mph 21.9 mph N/A   Mostly Cloudy
2:55 AM 68.9 °F 54.3 °F 60% 29.70 in 10.0 mi NW 15.0 mph 24.2 mph N/A   Overcast
3:15 AM 68.5 °F 54.3 °F 60% 29.72 in 10.0 mi NW 16.1 mph 20.7 mph N/A   Overcast
3:35 AM 68.2 °F 54.1 °F 61% 29.72 in 10.0 mi NW 15.0 mph 19.6 mph N/A   Overcast
3:55 AM 68.2 °F 54.1 °F 61% 29.73 in 10.0 mi NW 10.4 mph 18.4 mph N/A   Overcast
4:15 AM 68.2 °F 54.5 °F 62% 29.74 in 10.0 mi NNW 12.7 mph - N/A   Overcast
4:35 AM 68.0 °F 54.5 °F 62% 29.74 in 10.0 mi NNW 16.1 mph 19.6 mph N/A   Overcast
4:55 AM 67.8 °F 54.3 °F 62% 29.75 in 10.0 mi NW 20.7 mph 26.5 mph N/A   Overcast
5:15 AM 67.3 °F 54.1 °F 63% 29.76 in 10.0 mi NW 11.5 mph 21.9 mph N/A   Overcast
5:35 AM 67.1 °F 54.0 °F 63% 29.77 in 10.0 mi NNW 18.4 mph 27.6 mph N/A   Overcast
5:55 AM 65.3 °F 55.4 °F 70% 29.78 in 10.0 mi NNW 18.4 mph 29.9 mph N/A   Light Drizzle
6:15 AM 64.8 °F 55.8 °F 73% 29.80 in 10.0 mi NNW 19.6 mph 27.6 mph N/A   Overcast
6:35 AM 64.6 °F 55.9 °F 74% 29.81 in 10.0 mi NNW 13.8 mph 19.6 mph N/A   Overcast
6:55 AM 64.8 °F 55.9 °F 73% 29.82 in 10.0 mi NNW 9.2 mph 17.3 mph N/A   Overcast
7:15 AM 65.1 °F 56.3 °F 73% 29.82 in 10.0 mi North 10.4 mph - N/A   Overcast
7:35 AM 64.9 °F 55.9 °F 73% 29.83 in 10.0 mi NNW 8.1 mph 18.4 mph N/A   Overcast
7:55 AM 65.3 °F 56.3 °F 73% 29.84 in 10.0 mi NNW 8.1 mph - N/A   Overcast
8:15 AM 66.2 °F 57.4 °F 73% 29.84 in 10.0 mi NNW 8.1 mph - N/A   Overcast
8:35 AM 68.4 °F 57.7 °F 69% 29.85 in 10.0 mi NW 10.4 mph - N/A   Overcast
8:55 AM 67.8 °F 57.2 °F 69% 29.86 in 10.0 mi NNW 13.8 mph - N/A   Overcast
9:15 AM 68.2 °F 56.3 °F 66% 29.87 in 10.0 mi NW 12.7 mph 20.7 mph N/A   Overcast
9:35 AM 68.4 °F 55.9 °F 64% 29.87 in 10.0 mi NNW 16.1 mph 23.0 mph N/A   Overcast
9:55 AM 70.2 °F 56.1 °F 61% 29.88 in 10.0 mi North 10.4 mph 18.4 mph N/A   Mostly Cloudy
10:15 AM 70.0 °F 55.4 °F 60% 29.89 in 10.0 mi NNW 15.0 mph 24.2 mph N/A   Mostly Cloudy
10:35 AM 70.9 °F 55.2 °F 58% 29.90 in 10.0 mi North 13.8 mph 27.6 mph N/A   Mostly Cloudy
10:55 AM 71.1 °F 54.5 °F 56% 29.90 in 10.0 mi NNW 18.4 mph 24.2 mph N/A   Mostly Cloudy
11:15 AM 73.6 °F 53.6 °F 50% 29.91 in 10.0 mi North 16.1 mph 23.0 mph N/A   Scattered Clouds
11:35 AM 73.4 °F 52.5 °F 48% 29.92 in 10.0 mi NNE 13.8 mph 21.9 mph N/A   Scattered Clouds
11:55 AM 73.4 °F 52.7 °F 48% 29.93 in 10.0 mi North 11.5 mph 23.0 mph N/A   Clear
12:15 PM 73.4 °F 50.4 °F 44% 29.94 in 10.0 mi NNE 10.4 mph 23.0 mph N/A   Clear
12:35 PM 73.4 °F 51.4 °F 46% 29.94 in 10.0 mi North 6.9 mph - N/A   Mostly Cloudy
12:55 PM 75.0 °F 52.3 °F 45% 29.94 in 10.0 mi NW 9.2 mph 18.4 mph N/A   Mostly Cloudy
1:15 PM 75.4 °F 50.9 °F 42% 29.94 in 10.0 mi NNE 6.9 mph 18.4 mph N/A   Scattered Clouds
1:35 PM 76.5 °F 52.9 °F 44% 29.95 in 10.0 mi North 11.5 mph 17.3 mph N/A   Scattered Clouds
1:55 PM 74.8 °F 52.9 °F 46% 29.95 in 10.0 mi NW 13.8 mph 18.4 mph N/A   Scattered Clouds
2:15 PM 74.7 °F 52.0 °F 45% 29.95 in 10.0 mi North 8.1 mph 19.6 mph N/A   Mostly Cloudy
2:35 PM 74.7 °F 52.9 °F 46% 29.95 in 10.0 mi NW 8.1 mph 16.1 mph N/A   Mostly Cloudy
2:55 PM 77.0 °F 53.2 °F 44% 29.95 in 10.0 mi North 9.2 mph - N/A   Mostly Cloudy
3:15 PM 77.7 °F 55.0 °F 45% 29.95 in 10.0 mi NW 5.8 mph 16.1 mph N/A   Mostly Cloudy
3:35 PM 77.5 °F 53.6 °F 43% 29.94 in 10.0 mi WNW 5.8 mph - N/A   Mostly Cloudy
3:55 PM 78.8 °F 54.3 °F 43% 29.94 in 10.0 mi NNW 11.5 mph - N/A   Scattered Clouds
4:15 PM 76.5 °F 55.0 °F 47% 29.94 in 10.0 mi NNW 6.9 mph - N/A   Scattered Clouds
4:35 PM 77.5 °F 53.6 °F 43% 29.94 in 10.0 mi North 5.8 mph - N/A   Scattered Clouds
4:55 PM 78.8 °F 54.7 °F 43% 29.94 in 10.0 mi NW 4.6 mph - N/A   Scattered Clouds
5:15 PM 79.2 °F 55.0 °F 43% 29.94 in 10.0 mi North 5.8 mph - N/A   Mostly Cloudy
5:35 PM 78.8 °F 53.8 °F 42% 29.94 in 10.0 mi NNW 8.1 mph - N/A   Scattered Clouds
5:55 PM 78.8 °F 53.1 °F 41% 29.94 in 10.0 mi NNW 10.4 mph - N/A   Clear
6:15 PM 78.8 °F 51.6 °F 39% 29.94 in 10.0 mi WNW 11.5 mph 16.1 mph N/A   Clear
6:35 PM 78.8 °F 51.3 °F 38% 29.94 in 10.0 mi NW 6.9 mph - N/A   Clear
6:55 PM 77.9 °F 52.7 °F 41% 29.95 in 10.0 mi WNW 9.2 mph - N/A   Clear
7:15 PM 77.2 °F 54.1 °F 45% 29.95 in 10.0 mi Calm Calm - N/A   Clear
7:35 PM 75.7 °F 57.9 °F 54% 29.95 in 10.0 mi WNW 3.5 mph - N/A   Clear
7:55 PM 73.0 °F 61.3 °F 67% 29.95 in 10.0 mi Calm Calm - N/A   Clear
8:15 PM 69.4 °F 62.1 °F 77% 29.96 in 10.0 mi Calm Calm - N/A   Clear
8:35 PM 68.2 °F 61.0 °F 78% 29.96 in 10.0 mi Calm Calm - N/A   Clear
8:55 PM 64.8 °F 61.7 °F 90% 29.97 in 10.0 mi Calm Calm - N/A   Clear
9:15 PM 65.1 °F 60.6 °F 85% 29.98 in 10.0 mi Calm Calm - N/A   Clear
9:35 PM 63.1 °F 60.8 °F 92% 29.99 in 10.0 mi Calm Calm - N/A   Clear
9:55 PM 63.1 °F 60.1 °F 90% 29.99 in 10.0 mi Calm Calm - N/A   Clear
10:15 PM 62.1 °F 60.6 °F 95% 30.01 in 10.0 mi NW 4.6 mph - N/A   Clear
10:35 PM 61.3 °F 59.4 °F 93% 30.01 in 10.0 mi NW 4.6 mph - N/A   Clear
10:55 PM 61.5 °F 59.0 °F 91% 30.01 in 10.0 mi NW 3.5 mph - N/A   Clear
11:15 PM 60.4 °F 58.8 °F 94% 30.02 in 10.0 mi NW 3.5 mph - N/A   Clear
11:35 PM 61.0 °F 58.3 °F 91% 30.03 in 10.0 mi NW 3.5 mph - N/A   Scattered Clouds
11:55 PM 61.7 °F 58.1 °F 88% 30.03 in 10.0 mi NW 3.5 mph - N/A   Clear